AirNav   ATP
 
 1116 users online  

JLA Quartz Creek Airport
Cooper Landing, Alaska, USA

GOING TO COOPER LANDING?


FAA INFORMATION EFFECTIVE 29 MARCH 2018

Location

FAA Identifier: JLA
Lat/Long: 60-29-03.3500N / 149-43-22.4400W
60-29.055833N / 149-43.374000W
60.4842639 / -149.7229000
(estimated)
Elevation: 466 ft. / 142 m (estimated)
Variation: 25E (1985)
From city: 3 miles W of COOPER LANDING, AK
Time zone: UTC -8 (UTC -9 during Standard Time)
Zip code: 99572

Airport Operations

Airport use: Open to the public
Control tower: no
ARTCC: ANCHORAGE CENTER
FSS: KENAI FLIGHT SERVICE STATION [907-283-8469]
NOTAMs facility: ENA (NOTAM-D service available)
Attendance: UNATNDD
Wind indicator: yes, WINDSOCK IS BELOW TREELINE AND MAY BE UNRELIABLE.
Segmented circle: no

Airport Communications

CTAF: 122.9

Nearby radio navigation aids

NDB name  Hdg/Dist  Freq  Var  ID
SOLDOTNA070/34.234619EOLT --- .-.. -

Airport Services

Parking: tiedowns
Airframe service: NONE
Powerplant service: NONE
Bottled oxygen: NONE
Bulk oxygen: NONE

Runway Information

Runway 4/22

Dimensions: 2200 x 60 ft. / 671 x 18 m
Surface: gravel/dirt, in good condition
Runway edge markings: RY 04/22 MARKED WITH REFLECTIVE THLD PANELS.
Gradient: NORTHEAST
RUNWAY 4  RUNWAY 22
Latitude: 60-28.956500N60-29.155167N
Longitude: 149-43.679333W149-43.068667W
Elevation: 459.0 ft.466.0 ft.
Gradient: 0.3% UP0.1%
Traffic pattern: leftleft
Runway heading: 032 magnetic, 057 true212 magnetic, 237 true
Obstructions: 46 ft. trees, 369 ft. from runway, 126 ft. left of centerline, 7:1 slope to clear
MTN LCTD 2 SM FM APCH END.
65 ft. trees, 450 ft. from runway, 154 ft. left of centerline, 8:1 slope to clear

Airport Ownership and Management from official FAA records

Ownership: Publicly-owned
Owner: ALASKA DOT&PF CENTRAL REGION
P O BOX 196900
ANCHORAGE, AK 99519-6900
Phone 907-269-0770
Manager: SEAN MONTGOMERY/CARL HIGH
STATE OF ALASKA - DOTPF, P.O. BOX 1327
SOLDOTNA, AK 99669
Phone 907-262-2199

Airport Operational Statistics

Aircraft based on the field: 3
Single engine airplanes: 3
    
Aircraft operations: avg 38/month *
89% transient general aviation
11% local general aviation
* for 12-month period ending 31 December 2013

Additional Remarks

RY 04/22 EDGES NOT MKD.
STATE MAINTENANCE ON IRREGULAR BASIS, RCMD VISUAL INSPECTION PRIOR TO LANDING.
WX CAMERA AVBL ON INTERNET AT HTTP://AVCAMS.FAA.GOV

Instrument Procedures

There are no published instrument procedures at JLA.

Some nearby airports with instrument procedures:

PAWD - Seward Airport (23 nm SE)
PASX - Soldotna Airport (39 nm W)
PANC - Ted Stevens Anchorage International Airport (42 nm N)
PAMR - Merrill Field Airport (44 nm N)
PAEN - Kenai Municipal Airport (45 nm W)
 
Loc | Ops | Rwys | IFR | FBO | Links
Com | Nav | Svcs | Stats | Notes

Crowley
 
Area around JLA (Quartz Creek Airport)
 
Road maps at: MapQuest Bing Google
 
Aerial photo
WARNING: Photo may not be current or correct
Aerial photo of JLA (Quartz Creek Airport)
Do you have a better or more recent aerial photo of Quartz Creek Airport that you would like to share? If so, please send us your photo.

 
Sectional chart

 
Airport distance calculator
Flying to Quartz Creek Airport? Find the distance to fly.

From to JLA

Sunrise and sunset
Times for 21-Apr-2018
 Local
(UTC-8)
 Zulu
(UTC)
Morning civil twilight05:3313:33
Sunrise06:2314:23
Sunset21:3205:32
Evening civil twilight22:2206:22

Current date and time
Zulu (UTC)  21-Apr-2018 15:23:14
Local (UTC-8)  21-Apr-2018 07:23:14
 
METAR
PAWD 
24nm S 
211453Z AUTO 17005KT 8SM -RA OVC015 03/02 A2970 RMK AO2 SLP056 P0003 60005 T00330022 53009 TSNO $
PATO 
31nm NE 
211453Z AUTO 12008KT 090V160 10SM -RA FEW024 OVC031 03/00 A2971 RMK AO2 SLP061 P0001 60002 T00330000 51008 TSNO
PASX 
39nm W 
211456Z AUTO 00000KT 10SM BKN060 M01/M02 A2968 RMK AO2 SLP060 T10111017 53008 FZRANO
PANC 
42nm N 
211453Z VRB05KT 10SM FEW065 OVC080 03/M01 A2966 RMK AO2 SLP047 T00331006 53013
PALH 
43nm N 
211453Z 01004KT 10SM OVC075 02/00 A2967 RMK AO2 SLP049 T00220000 53012
PAMR 
44nm N 
211453Z 35005KT 10SM FEW030 OVC080 03/00 A2966 RMK AO2 SLP045 T00280000 51009
PAEN 
45nm W 
211453Z 04005KT 10SM SCT055 BKN080 OVC110 M01/M01 A2966 RMK AO2 SLP045 T10111011 51009
PAED 
46nm N 
211456Z AUTO 32007KT 10SM OVC070 03/01 A2965 RMK AO2 SLP037 T00250007 52010 $
PAFR 
47nm N 
211458Z AUTO 09008KT 10SM OVC075 05/M03 A2963 RMK AO2 SLP042 T00531032 52011 $
TAF
PANC 
42nm N 
211143Z 2112/2218 16008KT P6SM VCSH OVC060 FM220000 15010G19KT P6SM SCT050 BKN070 FM220700 15008KT P6SM BKN080
PAEN 
45nm W 
211143Z 2112/2212 VRB05KT P6SM OVC080 FM212100 02005KT 6SM -SHRA BKN040 OVC080 FM220000 08012KT P6SM SCT040 BKN070 FM220600 02014KT P6SM SCT080
PAED 
46nm N 
211100Z 2111/2217 VRB06KT 9999 BKN060 600604 QNH2954INS BECMG 2121/2122 08009KT 9999 SCT040 BKN060 600604 QNH2968INS TEMPO 2122/2202 12015G25KT TX09/2122Z TN01/2211Z
NOTAMs
Click for the latest NOTAMs
NOTAMs are issued by the DoD/FAA and will open in a separate window not controlled by AirNav.

 

 
 

Would you like to see your business listed on this page?

 If your business provides an interesting product or service to pilots, flight crews, aircraft, or users of the Quartz Creek Airport, you should consider listing it here.  To start the listing process, click on the button below
 
Add a business
 

Other Pages about Quartz Creek Airport

Update a link
 
Copyright © AirNav, LLC. All rights reserved. Privacy Policy  Contact